RYR288C LHBP-LIRA

Flight info

Callsign RYR288C
Flight time N/A
Altitude 38000
Route DUZLA DCT OKORA DCT VEBAL DCT NOVLO DCT UNIPA DCT SOMIG DCT VELUG/N0441F390 DCT ESODU DCT ASPIR DCT MOPUV
Aircraft B738/M-SDE2E3FGHIRWXY/LB1

Departure

Time 2026-05-04 10:02
Airport Budapest Liszt Ferenc International Airport (LHBP)

Arrival

Time N/A
Airport Ciampino–G. B. Pastine International Airport (LIRA)
Time Latitude Longitude Altitude Speed Heading
2026-05-04 10:00 47.43787 19.26979 472 ft 87 kts 133°
2026-05-04 10:00 47.43232 19.27873 460 ft 149 kts 136°
2026-05-04 10:02 47.38119 19.39813 4211 ft 253 kts 141°
2026-05-04 10:04 47.28035 19.31580 9641 ft 285 kts 226°
2026-05-04 10:04 47.26694 19.29364 10270 ft 295 kts 226°
2026-05-04 10:04 47.25267 19.27024 10485 ft 319 kts 226°
2026-05-04 10:04 47.23755 19.24552 10807 ft 337 kts 226°
2026-05-04 10:05 47.22166 19.21959 11452 ft 343 kts 226°
2026-05-04 10:05 47.20557 19.19344 12185 ft 346 kts 226°
2026-05-04 10:05 47.18933 19.16709 12935 ft 350 kts 226°
2026-05-04 10:05 47.17287 19.14042 13690 ft 355 kts 227°
2026-05-04 10:06 47.15616 19.11342 14400 ft 359 kts 226°
2026-05-04 10:06 47.13922 19.08609 15092 ft 364 kts 226°
2026-05-04 10:06 47.12206 19.05845 15801 ft 369 kts 227°
2026-05-04 10:08 47.01439 18.88569 19846 ft 394 kts 227°
2026-05-04 10:08 46.99578 18.85594 20489 ft 396 kts 227°
2026-05-04 10:08 46.97706 18.82605 21043 ft 402 kts 227°
2026-05-04 10:08 46.95806 18.79575 21697 ft 403 kts 227°
2026-05-04 10:09 46.93902 18.76543 22302 ft 407 kts 227°
2026-05-04 10:09 46.91970 18.73468 22810 ft 412 kts 228°
2026-05-04 10:09 46.90018 18.70364 23365 ft 416 kts 228°
2026-05-04 10:09 46.88049 18.67239 23898 ft 419 kts 228°
2026-05-04 10:10 46.86062 18.64090 24383 ft 422 kts 228°
2026-05-04 10:10 46.84090 18.60966 24805 ft 426 kts 228°
2026-05-04 10:10 46.82078 18.57782 25318 ft 427 kts 228°
2026-05-04 10:10 46.80051 18.54580 25741 ft 431 kts 228°
2026-05-04 10:11 46.78015 18.51367 26193 ft 433 kts 229°
2026-05-04 10:11 46.75960 18.48128 26639 ft 436 kts 229°
2026-05-04 10:11 46.73895 18.44878 27049 ft 439 kts 229°
2026-05-04 10:11 46.71812 18.41602 27477 ft 441 kts 229°
2026-05-04 10:12 46.69719 18.38315 27893 ft 444 kts 229°
2026-05-04 10:12 46.67608 18.35005 28292 ft 447 kts 229°
2026-05-04 10:12 46.65484 18.31677 28671 ft 450 kts 229°
2026-05-04 10:12 46.63345 18.28330 29035 ft 453 kts 229°
2026-05-04 10:13 46.61191 18.24964 29393 ft 456 kts 229°
2026-05-04 10:13 46.59024 18.21581 29752 ft 458 kts 229°
2026-05-04 10:13 46.56842 18.18180 30098 ft 461 kts 229°
2026-05-04 10:13 46.54648 18.14765 30409 ft 463 kts 229°
2026-05-04 10:14 46.52445 18.11341 30719 ft 465 kts 229°
2026-05-04 10:14 46.50233 18.07907 31042 ft 466 kts 229°
2026-05-04 10:16 46.34937 17.84279 33960 ft 454 kts 229°
2026-05-04 10:16 46.32776 17.80957 34327 ft 452 kts 229°
2026-05-04 10:16 46.30622 17.77651 34651 ft 451 kts 229°
2026-05-04 10:16 46.28469 17.74348 34946 ft 451 kts 229°
2026-05-04 10:17 46.26320 17.71056 35236 ft 450 kts 229°
2026-05-04 10:17 46.24166 17.67760 35544 ft 450 kts 229°
2026-05-04 10:19 46.09184 17.44951 37482 ft 446 kts 229°
2026-05-04 10:19 46.07049 17.41713 37716 ft 446 kts 229°
2026-05-04 10:19 46.04914 17.38480 37983 ft 445 kts 229°
2026-05-04 10:19 46.02778 17.35252 38145 ft 446 kts 229°
2026-05-04 10:20 45.97912 17.29624 38124 ft 453 kts 211°
2026-05-04 10:20 45.92068 17.26283 38139 ft 452 kts 199°
2026-05-04 10:21 45.86058 17.23654 38128 ft 451 kts 199°
2026-05-04 10:21 45.80072 17.21014 38123 ft 449 kts 199°
2026-05-04 10:22 45.71165 17.16992 38129 ft 449 kts 199°
2026-05-04 10:23 45.65194 17.14284 38132 ft 451 kts 199°
2026-05-04 10:25 45.41053 17.03412 38124 ft 459 kts 199°
2026-05-04 10:25 45.34957 17.00682 38137 ft 460 kts 199°
2026-05-04 10:26 45.28838 16.97948 38131 ft 461 kts 199°
2026-05-04 10:26 45.22712 16.95218 38130 ft 461 kts 199°
2026-05-04 10:27 45.16590 16.92695 38117 ft 461 kts 198°
2026-05-04 10:27 45.10398 16.90273 38133 ft 461 kts 197°
2026-05-04 10:28 45.04221 16.87849 38125 ft 461 kts 198°
2026-05-04 10:28 44.98047 16.85407 38123 ft 460 kts 198°
2026-05-04 10:29 44.91887 16.82966 38107 ft 459 kts 198°
2026-05-04 10:29 44.85741 16.80535 38126 ft 458 kts 198°
2026-05-04 10:30 44.79597 16.78111 38114 ft 458 kts 198°
2026-05-04 10:30 44.73452 16.75692 38125 ft 458 kts 198°
2026-05-04 10:31 44.67302 16.73277 38120 ft 459 kts 198°
2026-05-04 10:32 44.45768 16.64863 38129 ft 460 kts 198°
2026-05-04 10:33 44.39578 16.62456 38129 ft 461 kts 198°
2026-05-04 10:33 44.34451 16.60467 38138 ft 461 kts 198°
2026-05-04 10:34 44.28254 16.58067 38141 ft 461 kts 198°
2026-05-04 10:34 44.21057 16.55287 38122 ft 462 kts 198°
2026-05-04 10:35 44.15895 16.53296 38140 ft 462 kts 198°
2026-05-04 10:35 44.09747 16.50709 38144 ft 461 kts 201°
2026-05-04 10:36 44.03685 16.47777 38139 ft 461 kts 202°
2026-05-04 10:36 43.97617 16.44834 38145 ft 462 kts 202°
2026-05-04 10:37 43.91541 16.41946 38145 ft 461 kts 201°
2026-05-04 10:37 43.85458 16.39088 38147 ft 461 kts 201°
2026-05-04 10:39 43.64193 16.29154 38155 ft 460 kts 201°
2026-05-04 10:40 43.58133 16.26335 38161 ft 459 kts 201°
2026-05-04 10:40 43.52075 16.23523 38147 ft 460 kts 201°
2026-05-04 10:41 43.46013 16.20715 38154 ft 459 kts 201°
2026-05-04 10:41 43.39959 16.17916 38159 ft 459 kts 201°
2026-05-04 10:42 43.33907 16.15124 38158 ft 459 kts 201°
2026-05-04 10:42 43.27857 16.12338 38161 ft 459 kts 201°
2026-05-04 10:43 43.21838 16.09571 38159 ft 459 kts 203°
2026-05-04 10:44 43.08789 15.87217 38152 ft 438 kts 245°
2026-05-04 10:45 43.07306 15.83578 38155 ft 438 kts 245°
2026-05-04 10:45 43.04309 15.76300 38153 ft 440 kts 245°
2026-05-04 10:46 43.01293 15.69017 38151 ft 441 kts 245°
2026-05-04 10:46 42.98263 15.61718 38153 ft 442 kts 245°
2026-05-04 10:47 42.95229 15.54422 38152 ft 442 kts 245°
2026-05-04 10:47 42.92213 15.47186 38151 ft 442 kts 245°
2026-05-04 10:49 42.80169 15.18139 38146 ft 438 kts 245°
2026-05-04 10:50 42.78030 15.12997 38146 ft 437 kts 245°